Hourly Weather Suhaya Elmuta

Today, 20 January, Wednesday

Time Temperature Precipitation Wind Pressure Humidity
00:00 -16°C° 0 mm 1 mps 763 mmHg 94%
01:00 -16°C° 0 mm 1 mps 763 mmHg 94%
02:00 -18°C° 0 mm 2 mps 763 mmHg 94%
03:00 -19°C° 0 mm 2 mps 763 mmHg 94%
04:00 -19°C° 0 mm 2 mps 764 mmHg 94%
05:00 -19°C° 0 mm 2 mps 764 mmHg 93%
06:00 -19°C° 0 mm 2 mps 764 mmHg 93%
07:00 -18°C° 0 mm 2 mps 764 mmHg 93%
08:00 -17°C° 0 mm 2 mps 764 mmHg 92%
09:00 -16°C° 0 mm 2 mps 765 mmHg 92%
10:00 -15°C° 0 mm 2 mps 765 mmHg 90%
11:00 -14°C° 0 mm 2 mps 766 mmHg 89%
12:00 -13°C° 0 mm 2 mps 766 mmHg 87%
13:00 -13°C° 0 mm 2 mps 766 mmHg 88%
14:00 -13°C° 0 mm 2 mps 766 mmHg 88%
15:00 -13°C° 0 mm 2 mps 765 mmHg 89%
16:00 -15°C° 0 mm 2 mps 766 mmHg 91%
17:00 -14°C° 0 mm 1 mps 767 mmHg 93%
18:00 -16°C° 0 mm 1 mps 767 mmHg 94%
19:00 -16°C° 0 mm 1 mps 767 mmHg 94%
20:00 -17°C° 0 mm 1 mps 767 mmHg 94%
21:00 -17°C° 0 mm 1 mps 767 mmHg 94%
22:00 -17°C° 0 mm 1 mps 768 mmHg 94%
23:00 -18°C° 0 mm 1 mps 768 mmHg 94%

Tomorrow, 21 January, Thursday

Time Temperature Precipitation Wind Pressure Humidity
00:00 -18°C° 0 mm 1 mps 768 mmHg 95%
01:00 -18°C° 0 mm 0 mps 768 mmHg 95%
02:00 -19°C° 0 mm 0 mps 768 mmHg 96%
03:00 -19°C° 0 mm 0 mps 768 mmHg 96%
04:00 -19°C° 0 mm 0 mps 769 mmHg 96%
05:00 -19°C° 0 mm 0 mps 769 mmHg 96%
06:00 -19°C° 0 mm 0 mps 769 mmHg 95%
07:00 -19°C° 0 mm 0 mps 770 mmHg 94%
08:00 -18°C° 0 mm 0 mps 770 mmHg 92%
09:00 -17°C° 0 mm 0 mps 770 mmHg 91%
10:00 -16°C° 0 mm 0 mps 770 mmHg 89%
11:00 -14°C° 0 mm 0 mps 770 mmHg 87%
12:00 -12°C° 0 mm 1 mps 770 mmHg 85%
13:00 -11°C° 0 mm 1 mps 770 mmHg 87%
14:00 -11°C° 0 mm 1 mps 770 mmHg 88%
15:00 -10°C° 0 mm 1 mps 769 mmHg 89%
16:00 -13°C° 0 mm 2 mps 769 mmHg 90%
17:00 -14°C° 0 mm 2 mps 769 mmHg 90%
18:00 -15°C° 0 mm 2 mps 769 mmHg 91%
19:00 -14°C° 0 mm 2 mps 769 mmHg 92%
20:00 -14°C° 0 mm 3 mps 769 mmHg 92%
21:00 -14°C° 0 mm 3 mps 769 mmHg 93%
22:00 -12°C° 0 mm 3 mps 769 mmHg 93%
23:00 -10°C° 0 mm 3 mps 769 mmHg 93%

Day after tomorrow, 22 January, Friday

Time Temperature Precipitation Wind Pressure Humidity
00:00 -9°C° 0 mm 3 mps 768 mmHg 93%
01:00 -7°C° 0.1 mm 3 mps 768 mmHg 94%
02:00 -6°C° 0.1 mm 3 mps 768 mmHg 95%
03:00 -4°C° 0.1 mm 3 mps 767 mmHg 96%
04:00 -3°C° 0.1 mm 4 mps 767 mmHg 97%
05:00 -2°C° 0.1 mm 4 mps 767 mmHg 97%
06:00 -1°C° 0.1 mm 5 mps 767 mmHg 98%
07:00 0°C° 0 mm 4 mps 767 mmHg 97%
08:00 0°C° 0 mm 4 mps 767 mmHg 96%
09:00 0°C° 0 mm 4 mps 768 mmHg 95%
10:00 0°C° 0 mm 4 mps 768 mmHg 97%
11:00 0°C° 0 mm 4 mps 768 mmHg 98%
12:00 0°C° 0 mm 4 mps 767 mmHg 99%
13:00 0°C° 0 mm 4 mps 767 mmHg 99%
14:00 0°C° 0 mm 4 mps 767 mmHg 99%
15:00 0°C° 0 mm 4 mps 767 mmHg 99%
16:00 -1°C° 0 mm 4 mps 767 mmHg 98%
17:00 0°C° 0 mm 3 mps 767 mmHg 96%
18:00 -1°C° 0 mm 3 mps 767 mmHg 95%
19:00 -2°C° 0 mm 3 mps 767 mmHg 91%
20:00 -2°C° 0 mm 3 mps 767 mmHg 87%
21:00 -4°C° 0 mm 3 mps 767 mmHg 83%
22:00 -4°C° 0 mm 3 mps 767 mmHg 80%
23:00 -4°C° 0 mm 3 mps 767 mmHg 78%

23 January, Saturday

Time Temperature Precipitation Wind Pressure Humidity
00:00 -4°C° 0 mm 3 mps 767 mmHg 76%
01:00 -4°C° 0 mm 3 mps 767 mmHg 76%
02:00 -4°C° 0 mm 3 mps 767 mmHg 77%
03:00 -4°C° 0 mm 3 mps 766 mmHg 78%
04:00 -4°C° 0 mm 3 mps 766 mmHg 78%
05:00 -4°C° 0 mm 3 mps 766 mmHg 78%
06:00 -4°C° 0 mm 3 mps 766 mmHg 78%
07:00 -4°C° 0 mm 3 mps 766 mmHg 78%
08:00 -4°C° 0 mm 3 mps 766 mmHg 77%
09:00 -4°C° 0 mm 3 mps 767 mmHg 76%
10:00 -2°C° 0 mm 3 mps 766 mmHg 79%
11:00 -1°C° 0 mm 3 mps 766 mmHg 82%
12:00 0°C° 0 mm 3 mps 766 mmHg 85%
13:00 0°C° 0 mm 3 mps 766 mmHg 86%
14:00 0°C° 0 mm 3 mps 765 mmHg 86%
15:00 +1°C° 0 mm 3 mps 765 mmHg 87%
16:00 0°C° 0 mm 3 mps 765 mmHg 85%
17:00 -1°C° 0 mm 3 mps 765 mmHg 82%
18:00 -2°C° 0 mm 4 mps 765 mmHg 80%
19:00 -3°C° 0 mm 4 mps 765 mmHg 79%
20:00 -3°C° 0 mm 4 mps 765 mmHg 79%
21:00 -3°C° 0 mm 4 mps 765 mmHg 78%
22:00 -3°C° 0 mm 4 mps 765 mmHg 79%
23:00 -4°C° 0 mm 4 mps 764 mmHg 80%

24 January, Sunday

Time Temperature Precipitation Wind Pressure Humidity
00:00 -4°C° 0 mm 4 mps 764 mmHg 81%
01:00 -4°C° 0 mm 4 mps 764 mmHg 82%
02:00 -4°C° 0 mm 4 mps 764 mmHg 83%
03:00 -4°C° 0 mm 3 mps 764 mmHg 84%
04:00 -4°C° 0 mm 4 mps 764 mmHg 84%
05:00 -4°C° 0 mm 4 mps 764 mmHg 85%
06:00 -4°C° 0 mm 4 mps 764 mmHg 85%
07:00 -4°C° 0 mm 4 mps 764 mmHg 86%
08:00 -3°C° 0 mm 4 mps 764 mmHg 86%
09:00 -4°C° 0 mm 5 mps 764 mmHg 86%
10:00 -2°C° 0 mm 5 mps 764 mmHg 88%
11:00 -1°C° 0 mm 5 mps 763 mmHg 91%
12:00 -1°C° 0 mm 5 mps 763 mmHg 94%
13:00 -1°C° 0 mm 5 mps 763 mmHg 94%
14:00 0°C° 0 mm 5 mps 762 mmHg 94%
15:00 0°C° 0 mm 5 mps 762 mmHg 95%
16:00 0°C° 0 mm 5 mps 762 mmHg 92%
17:00 -1°C° 0 mm 5 mps 762 mmHg 90%
18:00 -1°C° 0 mm 5 mps 762 mmHg 87%
19:00 -1°C° 0 mm 5 mps 762 mmHg 88%
20:00 -1°C° 0 mm 5 mps 762 mmHg 89%
21:00 -2°C° 0 mm 6 mps 762 mmHg 90%
22:00 -1°C° 0 mm 5 mps 761 mmHg 90%
23:00 -2°C° 0 mm 5 mps 761 mmHg 90%

25 January, Monday

Time Temperature Precipitation Wind Pressure Humidity
00:00 -2°C° 0 mm 5 mps 761 mmHg 90%
01:00 -2°C° 0 mm 5 mps 760 mmHg 90%
02:00 -2°C° 0 mm 5 mps 760 mmHg 90%
03:00 -2°C° 0 mm 5 mps 760 mmHg 90%
04:00 -3°C° 0 mm 6 mps 760 mmHg 90%
05:00 -3°C° 0 mm 6 mps 760 mmHg 90%
06:00 -3°C° 0 mm 6 mps 760 mmHg 90%
07:00 -3°C° 0 mm 6 mps 760 mmHg 89%
08:00 -3°C° 0 mm 6 mps 760 mmHg 89%
09:00 -2°C° 0 mm 5 mps 760 mmHg 88%
10:00 -2°C° 0 mm 5 mps 761 mmHg 90%
11:00 -1°C° 0 mm 5 mps 761 mmHg 93%
12:00 -1°C° 0 mm 4 mps 761 mmHg 95%
13:00 0°C° 0 mm 4 mps 761 mmHg 95%
14:00 0°C° 0 mm 4 mps 761 mmHg 96%
15:00 +1°C° 0 mm 3 mps 761 mmHg 96%
16:00 +1°C° 0 mm 3 mps 761 mmHg 93%
17:00 0°C° 0 mm 3 mps 761 mmHg 90%
18:00 0°C° 0 mm 3 mps 761 mmHg 87%
19:00 0°C° 0 mm 3 mps 761 mmHg 87%
20:00 0°C° 0 mm 3 mps 761 mmHg 87%
21:00 -1°C° 0 mm 4 mps 761 mmHg 87%
22:00 -1°C° 0 mm 4 mps 761 mmHg 87%
23:00 -1°C° 0 mm 4 mps 761 mmHg 87%
Show more